Погода Старая Русса

Хотите узнать прогноз погоды Старая Русса? Тогда Вам сюда: Погода Старая Русса

Поиск расширенной информации на нашем сайте:

Полезная информация:

Новости сайта



02.01.2020
Опубликован Долгосрочный прогноз погоды по городам России и ближнего зарубежья на январь 2020 года.
Карты: Прогноз на январь и февраль 2020 года, Сравнение прогнозируемой аномалии приземной температуры воздуха на январь 2020 года по разным моделям.




Погода Старая Русса - сегодня

Время (UTC), дата Ветер
(°,м/с) 
Видим.   Явления Облачность Т
(°С)
Тd
(°С)
f(%) Тe
(°С)
Pmin
(гПа)
dP
(гПа)
Po
(мм)
O2
(г/м3)
Тmin Tmax R s Состояние
почвы
09 04.06.20 020 (С) 10 км  слаб. дождь  10/10 240 м 
[Frnb|Ns]
+12.7 +11.4 92 +16  1000.7  -1.7  748  286           
12 04.06.20 220 (ЮЗ) 10 км  слаб. дождь  10/10 450 м 
[Frnb|Ns]
+13.8 +11.8 88 +19  999.7  -1  748  284           
15 04.06.20 210 (ЮЗ) 20000 м  {дождь}  9/9 840 м 
[Sc]
+15.1 +12 82 +20  999.5  -0.2  747  283      11     
18 04.06.20 160 (Ю) 20000 м  {дождь}  6/3 600 м средняя, верхняя 
[Sc|Ac trans|Ci fib]
+14.4 +12.2 87 +19  999.7  0.2  748  284    +16.1     
21 04.06.20 150 (ЮВ) 20000 м    4/0 средняя 
[Ac trans]
+11.5 +10.6 94 +15  1000.2  0.5  748  287           
00 05.06.20 160 (Ю) 20000 м    8/0 средняя 
[Ac trans]
+10.5 +9.7 95 +13  1000.7  0.5  748  289           
03 05.06.20 160 (Ю) 20000 м    8/0 средняя, верхняя 
[Ac trans|Ci sp]
+11.1 +9.9 92 +12  1001.7  749  288  +10.2         
06 05.06.20 160 (Ю) 20000 м    3/1 600 м средняя 
[Cu med, cong|Ac trans]
+15 +11.4 79 +18  1002.8  1.1  750  284  +10.2         
09 05.06.20 180 (Ю) 20000 м    5/5 600 м 
[Cu med, cong]
+19.5 +10.6 56 +22  1003.5  0.7  750  280           
12 05.06.20 180 (Ю) 20000 м    8/5 600 м верхняя 
[Cu med, cong|Ci sp]
+21.1 +8.2 43 +21  1004.1  0.7  751  280           
15 05.06.20 180 (Ю) 20000 м    8/3 600 м кучево-дожд., верхняя 
[Cb cap|Ci sp]
+22.3 +6.5 36 +22  1004.5  0.4  751  279           
18 05.06.20 150 (ЮВ) 20000 м    1/1 600 м 
[Cu med, cong]
+18.8 +8 49 +20  1005.3  0.7  752  282    +22.9       
21 05.06.20 130 (ЮВ) 20000 м    1/0 верхняя 
[Ci fib]
+14 +8.8 71 +15  1006.6  1.3  753  287           
00 06.06.20 140 (ЮВ) 20000 м    3/0 верхняя 
[Ci sp]
+11.7 +8.6 81 +12  1006.7  0.1  753  289           
03 06.06.20 130 (ЮВ) 20000 м    9/0 верхняя 
[Ci sp]
+13.5 +9.2 75 +14  1006  -0.7  752  287  +11         
06 06.06.20 120 (ЮВ) 10 км  слаб. ливневой дождь  10/8 600 м кучево-дожд., средняя 
[Cb cap|Ac As]
+16.2 +10 67 +17  1004.7  -1.3  751  284  +11    0.0     
09 06.06.20 140 (ЮВ) 20000 м  в посл. час ливневой дождь  10/4 600 м кучево-дожд., средняя 
[Cb cap|Ac und]
+17.3 +14 81 +25  1004.6  -0.1  751  282           
12 06.06.20 200 (Ю) 20000 м  {ливн. осадки}  10/8 600 м кучево-дожд., средняя 
[Cb cap|Ac und]
+21.2 +15 68 +30  1004.9  0.4  752  278           
15 06.06.20 160 (Ю) 20000 м  {ливн. осадки}  1/1 600 м кучево-дожд. 
[Cb cap]
+21.3 +15.9 71 +31  1005.7  0.8  752  278         
18 06.06.20 020 (С) 20000 м  в посл. час ливневой дождь  9/3 600 м кучево-дожд., средняя 
[Cb cap|Ac As]
+17.9 +16.1 89 +30  1007.2  1.4  753  281    +22.1     
21 06.06.20 тихо ()   2000 м  дымка{ливн. осадки}  1/1 600 м кучево-дожд. 
[Cb cap]
+15.2 +14.6 96 +23  1009.8  2.6  755  285           
00 07.06.20 тихо ()   0200 м  туман{ливн. осадки}  4/0 верхняя 
[Ci fib]
+11.5 +10.9 96 +14  1012.2  2.3  757  291           
03 07.06.20 тихо ()   4000 м  дымка{туман}  ясно 
+13.7 +13.2 97 +19  1013.1  758  288  +10.4       
06 07.06.20 160 (Ю) 20000 м  {туман}  ясно 
+20.8 +12.9 61 +26  1014.6  1.5  759  282  +10.4       
09 07.06.20 160 (Ю) 20000 м    1/0 верхняя 
[Ci fib]
+24.6 +11.7 44 +28  1015.3  0.8  759  279           
Время (UTC), дата Ветер
(°,м/с) 
Видим.   Явления Облачность Т
(°С)
Тd
(°С)
f(%) Тe
(°С)
Pmin
(гПа)
dP
(гПа)
Po
(мм)
O2
(г/м3)
Тmin Tmax R s Состояние
почвы

Для получения пояснительной информации подведите курсор к названию столбца.

ПОГОДА Старая Русса - архив

Всё, что Вы хотите узнать о погоде Старая Русса - удобно и подробно!

Выберите нужную дату (начиная с 1 января 2019* года) и нажмите кнопку "Найти".
Будут отображены архивные сводки погоды по пункту Старая Русса, начиная с указанной даты.


Отображать данные в формате CSV (для использования в таблицах Excel)


Внимание! Наш архив погоды предназначен исключительно для личного некоммерческого использования в познавательных целях. Если Вам необходимы официальные справки о состоянии погоды (для производственных, юридических, коммерческих и т.п. целей), обращайтесь в органы Росгидромета.

*Примечание: данная дата относится к архиву по метеостанциям СССР (Россия, СНГ, Балтия).
Архив по метеостанциям Зарубежной Европы и Азии (кроме Китая) хранится 10 дней, по другим регионам земного шара (Китай, Африка, Америка, Австралия, Океания) - 1 день.

Старая Русса - район местоположения метеостанции


Название, широта, долгота, высота метеостанции:
Старая Русса 58°ш. 31.3°д. 25 м над ур. моря [Российская Федерация]

Дополнительная информация

В oтличие oт бoльшинства пoгoдных сайтoв мы публикуем пoдрoбную метеoинфoрмацию в детальнoм прoфессиoнальнoм фoрмате.

Характеристики температуры и влажнoсти вoздуха измеряются на высoте 2 м в тени вдали oт зданий и деревьев.
Скoрoсть ветра измеряется на высoте 10 м (на урoвне рoста челoвека скoрoсть ветра ниже в 1.5-2 раза). Если метеoстанция нахoдится в гoрoде или в лесу, тo скoрoсть ветра занижена на 2-4 м/с пo сравнению с oткрытым местoм. Скoрoсть ветра над акватoриями крупных рек и oзёр, а также на вершинах хoлмoв на 2-5 м/с выше, чем в oбычных услoвиях.
Атмoсфернoе давление в разных тoчках местнoсти мoжет значительнo oтличаться oт давления на метеoстанции, в зависимoсти oт услoвий рельефа (при пoдъёме на 10 м давление пoнижается примернo на 1 мм рт.ст.).